| time (UTC) | temp C | wind direction | speed KPH | gust KPH | rain 1hr cm | rain 24hr cm | rain mn cm | humidity % | barometer mb |
| 20260504033114 | 9 | 180 | 0.0 | 6.4 | 0.00 | 0.00 | 0.00 | 55 | 1012.4 |
| 20260504031559 | 9 | 134 | 0.0 | 3.2 | 0.00 | 0.00 | 0.00 | 54 | 1012.3 |
| 20260504030054 | 9 | 0 | 0.0 | 8.0 | 0.00 | 0.00 | 0.00 | 55 | 1012.2 |
| 20260504024551 | 9 | 142 | 0.0 | 8.0 | 0.00 | 0.00 | 0.00 | 55 | 1012.4 |
| 20260504023057 | 9 | 0 | 0.0 | 4.8 | 0.00 | 0.00 | 0.00 | 55 | 1012.3 |
| 20260504021556 | 8 | 165 | 0.0 | 3.2 | 0.00 | 0.00 | 0.00 | 57 | 1012.3 |
| 20260504020112 | 8 | 0 | 0.0 | 3.2 | 0.00 | 0.00 | 0.00 | 55 | 1012.3 |
| 20260504014603 | 9 | 0 | 0.0 | 3.2 | 0.00 | 0.00 | 0.00 | 55 | 1012.2 |
| 20260504013057 | 8 | 0 | 0.0 | 3.2 | 0.00 | 0.00 | 0.00 | 56 | 1012.1 |
| 20260504011559 | 8 | 0 | 0.0 | 3.2 | 0.00 | 0.00 | 0.00 | 57 | 1012.0 |
| 20260504010101 | 8 | 0 | 0.0 | 0.0 | 0.00 | 0.00 | 0.00 | 57 | 1011.6 |
| 20260504004604 | 10 | 0 | 0.0 | 0.0 | 0.00 | 0.00 | 0.00 | 56 | 1011.4 |
| 20260504003055 | 10 | 141 | 0.0 | 3.2 | 0.00 | 0.00 | 0.00 | 52 | 1011.3 |
| 20260504001612 | 11 | 0 | 0.0 | 1.6 | 0.00 | 0.00 | 0.00 | 49 | 1011.3 |
| 20260504000056 | 12 | 123 | 0.0 | 4.8 | 0.00 | 0.00 | 0.00 | 45 | 1011.0 |
| 20260503234556 | 13 | 0 | 0.0 | 4.8 | 0.00 | 0.00 | 0.00 | 44 | 1010.9 |
| 20260503233052 | 13 | 184 | 0.0 | 6.4 | 0.00 | 0.00 | 0.00 | 42 | 1010.8 |
| 20260503231556 | 14 | 234 | 4.8 | 16.1 | 0.00 | 0.00 | 0.00 | 37 | 1010.7 |
| 20260503230055 | 15 | 241 | 4.8 | 14.5 | 0.00 | 0.00 | 0.00 | 37 | 1010.7 |
| 20260503224549 | 15 | 226 | 6.4 | 20.9 | 0.00 | 0.00 | 0.00 | 36 | 1010.8 |
| 20260503223051 | 15 | 207 | 3.2 | 17.7 | 0.00 | 0.00 | 0.00 | 36 | 1010.5 |
| 20260503221556 | 15 | 226 | 12.9 | 25.7 | 0.00 | 0.00 | 0.00 | 35 | 1010.4 |
| 20260503220105 | 15 | 360 | 6.4 | 24.1 | 0.00 | 0.00 | 0.00 | 35 | 1010.2 |
| 20260503214549 | 15 | 273 | 9.7 | 25.7 | 0.00 | 0.00 | 0.00 | 34 | 1010.2 |
| 20260503213050 | 15 | 227 | 9.7 | 20.9 | 0.00 | 0.00 | 0.00 | 34 | 1010.1 |
| 20260503211605 | 15 | 233 | 11.3 | 24.1 | 0.00 | 0.00 | 0.00 | 34 | 1010.1 |
| 20260503210055 | 15 | 235 | 8.0 | 25.7 | 0.00 | 0.00 | 0.00 | 34 | 1010.1 |
| 20260503204555 | 15 | 238 | 11.3 | 24.1 | 0.00 | 0.00 | 0.00 | 36 | 1010.2 |
| 20260503203050 | 15 | 214 | 6.4 | 19.3 | 0.00 | 0.00 | 0.00 | 36 | 1009.9 |
| 20260503201551 | 15 | 248 | 12.9 | 25.7 | 0.00 | 0.00 | 0.00 | 36 | 1009.9 |
| 20260503200049 | 14 | 277 | 8.0 | 29.0 | 0.00 | 0.00 | 0.00 | 36 | 1009.9 |
| 20260503194555 | 14 | 265 | 16.1 | 27.4 | 0.00 | 0.00 | 0.00 | 36 | 1010.2 |
| 20260503193057 | 14 | 209 | 6.4 | 19.3 | 0.00 | 0.00 | 0.00 | 40 | 1010.3 |
| 20260503191551 | 14 | 277 | 9.7 | 19.3 | 0.00 | 0.00 | 0.00 | 40 | 1010.4 |
| 20260503190054 | 13 | 273 | 12.9 | 33.8 | 0.00 | 0.00 | 0.00 | 40 | 1010.6 |
| 20260503184551 | 13 | 263 | 9.7 | 29.0 | 0.00 | 0.00 | 0.00 | 42 | 1010.7 |
| 20260503183050 | 12 | 318 | 8.0 | 22.5 | 0.00 | 0.00 | 0.00 | 42 | 1010.7 |
| 20260503181620 | 13 | 238 | 11.3 | 24.1 | 0.00 | 0.00 | 0.00 | 42 | 1010.8 |
| 20260503180120 | 13 | 215 | 9.7 | 22.5 | 0.00 | 0.00 | 0.00 | 43 | 1010.8 |
| 20260503174556 | 12 | 248 | 11.3 | 33.8 | 0.00 | 0.00 | 0.00 | 42 | 1010.9 |
| 20260503173057 | 12 | 340 | 8.0 | 27.4 | 0.00 | 0.00 | 0.00 | 44 | 1010.9 |
| 20260503171549 | 12 | 234 | 12.9 | 25.7 | 0.00 | 0.00 | 0.00 | 44 | 1010.8 |
| 20260503120107 | 6 | 244 | 4.8 | 12.9 | 0.00 | 0.00 | 0.00 | 69 | 1010.5 |
| 20260503100106 | 4 | 246 | 1.6 | 9.7 | 0.00 | 0.00 | 0.00 | 73 | 1008.8 |
| 20260503081558 | 6 | 240 | 0.0 | 4.8 | 0.00 | 0.00 | 0.00 | 67 | 1007.8 |
| 20260503071557 | 8 | 254 | 1.6 | 6.4 | 0.00 | 0.00 | 0.00 | 63 | 1007.7 |
| 20260503070114 | 8 | 288 | 3.2 | 11.3 | 0.00 | 0.00 | 0.00 | 64 | 1007.9 |
| 20260503060114 | 8 | 235 | 3.2 | 11.3 | 0.00 | 0.00 | 0.00 | 64 | 1008.2 |
| 20260503054558 | 8 | 257 | 3.2 | 11.3 | 0.00 | 0.00 | 0.00 | 64 | 1008.3 |
| 20260503053055 | 8 | 292 | 3.2 | 12.9 | 0.00 | 0.00 | 0.00 | 64 | 1008.5 |
| 20260503051556 | 8 | 238 | 3.2 | 9.7 | 0.00 | 0.00 | 0.00 | 64 | 1008.7 |
| 20260503050057 | 8 | 295 | 1.6 | 8.0 | 0.00 | 0.00 | 0.00 | 66 | 1008.5 |
| 20260503044622 | 8 | 267 | 1.6 | 12.9 | 0.00 | 0.00 | 0.00 | 66 | 1008.8 |
| 20260503043101 | 8 | 266 | 0.0 | 4.8 | 0.00 | 0.00 | 0.00 | 68 | 1008.8 |
| 20260503041557 | 8 | 245 | 1.6 | 6.4 | 0.00 | 0.00 | 0.00 | 68 | 1008.9 |
| 20260503040051 | 8 | 287 | 1.6 | 6.4 | 0.00 | 0.00 | 0.00 | 68 | 1009.2 |
| 20260503034557 | 8 | 238 | 1.6 | 6.4 | 0.00 | 0.00 | 0.00 | 70 | 1009.1 |